TimeEST,TemperatureF,Dew PointF,Humidity,Sea Level PressureIn,VisibilityMPH,Wind Direction,Wind SpeedMPH,Gust SpeedMPH,PrecipitationIn,Events,Conditions,WindDirDegrees,DateUTC
12:20 AM,30.2,24.8,80,30.05,10.0,North,8.1,-,0.00,Snow,Light Snow,10,2013-03-02 05:20:00
12:54 AM,30.0,23.0,75,30.07,9.0,NNE,9.2,-,0.00,,Overcast,30,2013-03-02 05:54:00
1:54 AM,28.9,21.9,75,30.08,9.0,NNE,10.4,-,0.00,Snow,Light Snow,30,2013-03-02 06:54:00
2:54 AM,28.0,21.9,78,30.08,10.0,NNE,10.4,-,0.00,,Overcast,30,2013-03-02 07:54:00
3:08 AM,28.4,21.2,74,30.05,10.0,NNE,11.5,-,N/A,,Overcast,30,2013-03-02 08:08:00
3:54 AM,28.0,21.0,75,30.07,10.0,NNE,10.4,-,N/A,,Overcast,20,2013-03-02 08:54:00
4:33 AM,28.4,19.4,69,30.04,10.0,North,10.4,-,N/A,,Overcast,360,2013-03-02 09:33:00
4:54 AM,27.0,19.9,75,30.07,10.0,North,9.2,-,N/A,,Overcast,360,2013-03-02 09:54:00
5:23 AM,28.4,19.4,69,30.05,10.0,North,6.9,-,N/A,,Overcast,10,2013-03-02 10:23:00
5:54 AM,27.0,19.9,75,30.08,10.0,North,11.5,-,N/A,,Overcast,10,2013-03-02 10:54:00
6:54 AM,26.1,19.0,75,30.08,10.0,North,10.4,-,N/A,,Overcast,10,2013-03-02 11:54:00
7:54 AM,25.0,17.1,72,30.10,10.0,NNW,10.4,-,N/A,,Overcast,340,2013-03-02 12:54:00
8:54 AM,26.1,17.1,69,30.12,10.0,North,10.4,-,0.00,Snow,Light Snow,10,2013-03-02 13:54:00
9:54 AM,26.1,17.1,69,30.12,9.0,North,10.4,-,0.00,Snow,Light Snow,350,2013-03-02 14:54:00
10:42 AM,26.6,17.6,69,30.09,9.0,North,12.7,-,0.00,Snow,Light Snow,350,2013-03-02 15:42:00
10:54 AM,27.0,18.0,69,30.12,7.0,North,11.5,-,0.00,Snow,Light Snow,10,2013-03-02 15:54:00
11:54 AM,28.0,19.0,69,30.12,8.0,North,9.2,-,0.00,Snow,Light Snow,350,2013-03-02 16:54:00
12:46 PM,28.4,19.4,69,30.09,9.0,NNW,9.2,-,0.00,Snow,Light Snow,340,2013-03-02 17:46:00
12:54 PM,28.9,18.0,64,30.12,9.0,North,12.7,-,0.00,Snow,Light Snow,350,2013-03-02 17:54:00
1:54 PM,28.9,17.1,61,30.10,9.0,North,10.4,-,0.00,Snow,Light Snow,350,2013-03-02 18:54:00
2:36 PM,28.4,19.4,69,30.07,9.0,NW,12.7,-,0.00,Snow,Light Snow,320,2013-03-02 19:36:00
2:54 PM,28.0,19.9,72,30.10,9.0,NNW,11.5,-,0.00,Snow,Light Snow,340,2013-03-02 19:54:00
3:54 PM,28.9,18.0,64,30.09,9.0,NNW,13.8,-,0.00,Snow,Light Snow,330,2013-03-02 20:54:00
4:03 PM,28.4,17.6,64,30.07,9.0,NW,12.7,-,0.00,,Overcast,320,2013-03-02 21:03:00
4:54 PM,28.9,18.0,64,30.10,10.0,NW,15.0,-,0.00,,Overcast,320,2013-03-02 21:54:00
5:54 PM,30.0,18.0,61,30.11,10.0,NNW,11.5,-,N/A,,Overcast,330,2013-03-02 22:54:00
6:54 PM,28.9,23.0,78,30.12,7.0,WNW,11.5,-,0.00,Snow,Light Snow,300,2013-03-02 23:54:00
7:54 PM,28.0,23.0,81,30.12,10.0,NW,9.2,-,0.00,,Mostly Cloudy,310,2013-03-03 00:54:00
8:54 PM,28.0,23.0,81,30.12,9.0,NW,12.7,-,0.00,,Overcast,310,2013-03-03 01:54:00
9:54 PM,28.0,21.9,78,30.13,9.0,NW,10.4,-,0.00,Snow,Light Snow,320,2013-03-03 02:54:00
10:54 PM,28.0,23.0,81,30.12,9.0,NW,10.4,-,0.00,Snow,Light Snow,310,2013-03-03 03:54:00
11:07 PM,26.6,23.0,86,30.09,6.0,NW,9.2,-,0.00,Snow,Light Snow,320,2013-03-03 04:07:00
11:54 PM,27.0,23.0,85,30.12,3.0,NW,9.2,-,0.01,Snow,Light Snow,310,2013-03-03 04:54:00